Volver al catálogo

INTEGRAL

ActivoCienciaHEO
NORAD 27540·PAYLOAD·🇪🇺 EU

Lanzado Oct 17, 2002 desde Baikonur Cosmodrome

Loading…

Próximos Pases (próximas 24 horas)

TLE

ActualizadoSource: Space-Track

Época: Sep 13, 2026, 07:15 UTC

1 27540U 02048A   26256.30220347 -.00000076  00000-0  00000+0 0  9997
2 27540  89.1359 343.2134 8749439 257.6655 228.4760  0.37568216 26965

Sigue INTEGRAL en tiempo real con AllMySat

Download on the App Store